Weather History for Wahoo, NE

Change the Weather History Date:

Monday, March 5, 2012

  Actual Average Record
Temperature  
Mean Temperature 39 °F -  
Max Temperature 59 °F 44 °F 70 °F (1991)
Min Temperature 19 °F 23 °F 0 °F (1978)
Degree Days  
Heating Degree Days 26    
Moisture  
Dew Point 23 °F    
Average Humidity 63    
Maximum Humidity 91    
Minimum Humidity 27    
Precipitation  
Precipitation 0.00 in - - ()
Sea Level Pressure  
Sea Level Pressure 30.13 in    
Wind  
Wind Speed 8 mph (South)    
Max Wind Speed 25 mph    
Max Gust Speed 32 mph    
Visibility 10 miles    
Events      
Averages and records for this station are not official NWS values.
T = Trace of Precipitation, MM = Missing Value Source: NWS Daily Summary

Daily Weather History Graph

Daily Weather History Graph

Search for Another Location

Airport:

Trip Planner

Search our weather history database for the weather conditions in past years. The results will help you decide how hot, cold, wet, or windy it might be!

Date:

Astronomy

Mar. 05, 2012 Rise Set
Actual Time 6:53 AM CST 6:22 PM CST
Civil Twilight 6:26 AM CST 6:50 PM CST
Nautical Twilight 5:54 AM CST 7:21 PM CST
Astronomical Twilight 5:22 AM CST 7:54 PM CST
Moon 3:40 PM CST (3/5) 4:55 AM CST (3/5)
Length of Visible Light 12h 23m
Length of Day
11h 28m
Waxing Gibbous, 91% of the Moon is Illuminated
Mar 5
Waxing Gibbous
Mar 8
Full
Mar 14
Last Quarter
Mar 22
New
Mar 30
First Quarter

Hourly Weather History & Observations

Time (CST) Temp. Windchill Dew Point Humidity Pressure Visibility Wind Dir Wind Speed Gust Speed Precip Events Conditions
12:15 AM 27.5 °F - 23.2 °F 84% 30.20 in 10.0 mi Calm Calm - N/A   Clear
12:35 AM 25.7 °F 21.5 °F 22.3 °F 87% 30.20 in 10.0 mi WSW 3.5 mph - N/A   Clear
12:55 AM 25.3 °F 19.7 °F 21.9 °F 87% 30.21 in 10.0 mi West 4.6 mph - N/A   Clear
1:15 AM 26.6 °F - 22.5 °F 84% 30.21 in 10.0 mi Calm Calm - N/A   Clear
1:35 AM 23.7 °F - 20.8 °F 89% 30.21 in 10.0 mi Calm Calm - N/A   Clear
1:55 AM 21.9 °F - 19.4 °F 90% 30.22 in 10.0 mi Calm Calm - N/A   Clear
2:15 AM 22.6 °F 15.3 °F 20.1 °F 90% 30.24 in 10.0 mi SW 5.8 mph - N/A   Clear
2:35 AM 23.0 °F 18.4 °F 20.3 °F 89% 30.23 in 10.0 mi West 3.5 mph - N/A   Clear
2:55 AM 23.9 °F - 21.0 °F 89% 30.22 in 10.0 mi Calm Calm - N/A   Clear
3:15 AM 23.4 °F - 20.5 °F 89% 30.21 in 10.0 mi Calm Calm - N/A   Clear
3:35 AM 20.7 °F 15.8 °F 18.1 °F 90% 30.21 in 10.0 mi South 3.5 mph - N/A   Clear
3:55 AM 19.9 °F 11.1 °F 17.4 °F 90% 30.21 in 10.0 mi SSW 6.9 mph - N/A   Clear
4:15 AM 22.6 °F 13.4 °F 20.1 °F 90% 30.22 in 10.0 mi SW 8.1 mph - N/A   Clear
4:35 AM 23.0 °F 15.8 °F 20.1 °F 89% 30.22 in 10.0 mi WSW 5.8 mph - N/A   Clear
4:55 AM 22.1 °F 17.4 °F 19.4 °F 89% 30.22 in 10.0 mi South 3.5 mph - N/A   Clear
5:15 AM 21.6 °F 16.8 °F 18.3 °F 87% 30.22 in 10.0 mi South 3.5 mph - N/A   Clear
5:35 AM 19.8 °F 13.2 °F 17.4 °F 91% 30.22 in 10.0 mi SE 4.6 mph - N/A   Clear
5:55 AM 19.8 °F 14.7 °F 17.4 °F 91% 30.22 in 10.0 mi South 3.5 mph - N/A   Clear
6:15 AM 19.8 °F 13.2 °F 17.4 °F 91% 30.23 in 10.0 mi South 4.6 mph - N/A   Clear
6:35 AM 19.4 °F 12.8 °F 16.7 °F 89% 30.23 in 10.0 mi South 4.6 mph - N/A   Clear
6:55 AM 19.4 °F 11.5 °F 17.2 °F 91% 30.22 in 10.0 mi SSE 5.8 mph - N/A   Clear
7:15 AM 20.7 °F 14.2 °F 18.1 °F 90% 30.22 in 10.0 mi South 4.6 mph - N/A   Clear
7:35 AM 22.6 °F 18.0 °F 20.1 °F 90% 30.22 in 10.0 mi SSE 3.5 mph - N/A   Clear
7:55 AM 25.0 °F 17.1 °F 21.7 °F 87% 30.22 in 10.0 mi SSE 6.9 mph - N/A   Clear
8:15 AM 27.7 °F 19.6 °F 23.5 °F 84% 30.22 in 10.0 mi South 8.1 mph - N/A   Clear
8:35 AM 30.4 °F 20.0 °F 24.4 °F 79% 30.22 in 10.0 mi South 13.8 mph - N/A   Clear
8:55 AM 32.0 °F 22.1 °F 25.5 °F 77% 30.22 in 10.0 mi South 13.8 mph - N/A   Clear
9:15 AM 33.4 °F 23.5 °F 26.4 °F 75% 30.22 in 10.0 mi South 15.0 mph - N/A   Clear
9:35 AM 35.8 °F 25.7 °F 26.4 °F 69% 30.21 in 10.0 mi South 17.3 mph 20.7 mph N/A   Clear
9:55 AM 37.6 °F 28.1 °F 25.7 °F 62% 30.20 in 10.0 mi South 17.3 mph - N/A   Clear
10:15 AM 39.0 °F 30.3 °F 25.7 °F 59% 30.19 in 10.0 mi South 16.1 mph - N/A   Clear
10:35 AM 40.3 °F 31.0 °F 24.1 °F 52% 30.18 in 10.0 mi South 19.6 mph 24.2 mph N/A   Clear
10:55 AM 41.9 °F 34.0 °F 24.1 °F 49% 30.17 in 10.0 mi South 16.1 mph 25.3 mph N/A   Clear
11:15 AM 43.2 °F 34.5 °F 24.1 °F 47% 30.16 in 10.0 mi South 20.7 mph - N/A   Clear
11:35 AM 44.8 °F 37.1 °F 23.2 °F 43% 30.15 in 10.0 mi South 18.4 mph 25.3 mph N/A   Clear
11:55 AM 47.1 °F - 23.4 °F 39% 30.14 in 10.0 mi South 17.3 mph 24.2 mph N/A   Clear
12:15 PM 48.2 °F - 22.1 °F 36% 30.12 in 10.0 mi South 19.6 mph 25.3 mph N/A   Clear
12:35 PM 49.1 °F - 21.9 °F 34% 30.11 in 10.0 mi South 17.3 mph 27.6 mph N/A   Clear
12:55 PM 50.9 °F - 23.4 °F 34% 30.09 in 10.0 mi South 20.7 mph 26.5 mph N/A   Clear
1:15 PM 52.2 °F - 23.7 °F 33% 30.07 in 10.0 mi South 18.4 mph 27.6 mph N/A   Clear
1:35 PM 53.4 °F - 23.7 °F 32% 30.05 in 10.0 mi South 20.7 mph 27.6 mph N/A   Clear
1:55 PM 54.9 °F - 24.3 °F 31% 30.03 in 10.0 mi South 20.7 mph 29.9 mph N/A   Clear
2:15 PM 56.1 °F - 25.0 °F 30% 30.00 in 10.0 mi South 25.3 mph 28.8 mph N/A   Clear
2:35 PM 56.5 °F - 24.8 °F 30% 30.00 in 10.0 mi South 23.0 mph 31.1 mph N/A   Clear
2:55 PM 57.6 °F - 24.3 °F 28% 29.99 in 10.0 mi South 25.3 mph 32.2 mph N/A   Clear
3:15 PM 58.3 °F - 25.0 °F 28% 29.98 in 10.0 mi South 20.7 mph 27.6 mph N/A   Clear
3:35 PM 58.5 °F - 25.3 °F 28% 29.97 in 10.0 mi SSW 20.7 mph 32.2 mph N/A   Clear
3:55 PM 59.7 °F - 25.9 °F 27% 29.95 in 10.0 mi SSW 16.1 mph 27.6 mph N/A   Clear
4:15 PM 59.7 °F - 25.9 °F 27% 29.94 in 10.0 mi South 21.9 mph 31.1 mph N/A   Clear
4:35 PM 59.9 °F - 26.4 °F 28% 29.93 in 10.0 mi South 17.3 mph 27.6 mph N/A   Clear
4:55 PM 59.9 °F - 26.6 °F 28% 29.92 in 10.0 mi SSW 21.9 mph 27.6 mph N/A   Clear
5:15 PM 59.9 °F - 27.1 °F 29% 29.92 in 10.0 mi South 16.1 mph 25.3 mph N/A   Clear
5:35 PM 59.0 °F - 27.3 °F 30% 29.91 in 10.0 mi South 17.3 mph 23.0 mph N/A   Clear
5:55 PM 57.7 °F - 27.5 °F 31% 29.91 in 10.0 mi South 15.0 mph - N/A   Clear
6:15 PM 55.6 °F - 27.7 °F 34% 29.90 in 10.0 mi South 13.8 mph - N/A   Clear
6:35 PM 51.1 °F - 28.4 °F 42% 29.90 in 10.0 mi South 11.5 mph - N/A   Clear
6:55 PM 49.1 °F - 28.9 °F 46% 29.90 in 10.0 mi SSE 12.7 mph - N/A   Clear
7:15 PM 46.8 °F - 28.8 °F 50% 29.89 in 10.0 mi South 10.4 mph - N/A   Clear
7:35 PM 46.8 °F - 29.1 °F 50% 29.88 in 10.0 mi SSE 12.7 mph - N/A   Clear
7:55 PM 47.5 °F - 29.1 °F 49% 29.88 in 10.0 mi SSE 11.5 mph - N/A   Clear
8:15 PM 46.8 °F - 28.4 °F 49% 29.87 in 10.0 mi SSE 11.5 mph - N/A   Clear
8:35 PM 44.2 °F 39.2 °F 28.2 °F 53% 29.86 in 10.0 mi SSE 9.2 mph - N/A   Clear
8:55 PM 45.3 °F 39.0 °F 28.2 °F 51% 29.85 in 10.0 mi SSE 13.8 mph - N/A   Clear
9:15 PM 45.5 °F 38.9 °F 28.0 °F 51% 29.85 in 10.0 mi SSE 15.0 mph - N/A   Clear
9:35 PM 44.2 °F 38.0 °F 28.4 °F 54% 29.83 in 10.0 mi SSE 12.7 mph - N/A   Clear
9:55 PM 43.2 °F 37.0 °F 28.4 °F 56% 29.82 in 10.0 mi SSE 11.5 mph - N/A   Clear
10:15 PM 41.9 °F 35.4 °F 28.4 °F 59% 29.81 in 10.0 mi SSE 11.5 mph - N/A   Clear
10:35 PM 41.5 °F 35.4 °F 28.2 °F 59% 29.80 in 10.0 mi SSE 10.4 mph - N/A   Clear
10:55 PM 41.0 °F 35.2 °F 27.9 °F 60% 29.80 in 10.0 mi SSE 9.2 mph - N/A   Clear
11:15 PM 41.0 °F 34.7 °F 28.0 °F 60% 29.79 in 10.0 mi SSE 10.4 mph - N/A   Clear
11:35 PM 39.7 °F 32.7 °F 28.4 °F 64% 29.77 in 10.0 mi SE 11.5 mph - N/A   Clear
11:55 PM 39.7 °F 32.3 °F 28.8 °F 65% 29.76 in 10.0 mi SE 12.7 mph - N/A   Clear